,,,PA_Meas_PMT16A,,PR_Meas_QMR101_102,,RH_Meas_QMH101,,SR_Meas_QMS101,,TA_Meas_QMH101,,GenWind,,GenWind,
date,time,status,PA,status,PR,status,RH,status,SR,status,TA,status,DirAvg,status,SpdAvg,
2011-02-12, 00:00:04,VALID,1003.6,VALID,0,INVALID,163.632,VALID,0.100563,VALID,24.8308,VALID,356,VALID,0.645312,
2011-02-12, 00:01:04,VALID,1003.56,VALID,0,INVALID,163.647,VALID,0,VALID,24.7724,VALID,356,VALID,0.335156,
2011-02-12, 00:02:04,VALID,1003.58,VALID,0,INVALID,163.632,VALID,0,VALID,24.7529,VALID,356,VALID,0.218359,
2011-02-12, 00:03:04,VALID,1003.57,VALID,0,INVALID,163.647,VALID,0.100563,VALID,24.7335,VALID,359,VALID,0.633203,
2011-02-12, 00:04:04,VALID,1003.57,VALID,0,INVALID,163.647,VALID,0,VALID,24.7335,VALID,8,VALID,0.747266,
2011-02-12, 00:05:04,VALID,1003.57,VALID,0,INVALID,163.662,VALID,0,VALID,24.7919,VALID,7,VALID,1.56406,
2011-02-12, 00:06:04,VALID,1003.56,VALID,0,INVALID,163.647,VALID,0,VALID,24.9495,VALID,8,VALID,0.744531,
2011-02-12, 00:07:04,VALID,1003.57,VALID,0,INVALID,163.632,VALID,0,VALID,25.006,VALID,359,VALID,0.663672,
2011-02-12, 00:08:04,VALID,1003.63,VALID,0,INVALID,163.617,VALID,0,VALID,25.1034,VALID,360,VALID,0.723437,
2011-02-12, 00:09:04,VALID,1003.6,VALID,0,INVALID,163.609,VALID,0,VALID,25.1423,VALID,27,VALID,1.9668,
2011-02-12, 00:10:04,VALID,1003.61,VALID,0,INVALID,163.594,VALID,0,VALID,25.339,VALID,358,VALID,1.43906,
2011-02-12, 00:11:04,VALID,1003.58,VALID,0,INVALID,163.586,VALID,0,VALID,25.4928,VALID,11,VALID,1.61797,
2011-02-12, 00:12:04,VALID,1003.59,VALID,0,INVALID,144.193,VALID,0,VALID,25.6311,VALID,4,VALID,0.851563,
2011-02-12, 00:13:04,VALID,1003.56,VALID,0,INVALID,126.632,VALID,0,VALID,25.67,VALID,28,VALID,1.33359,
2011-02-12, 00:14:04,VALID,1003.59,VALID,0,INVALID,116.501,VALID,0,VALID,25.67,VALID,13,VALID,2.32617,
2011-02-12, 00:15:04,VALID,1003.58,VALID,0,INVALID,113.625,VALID,0,VALID,25.6662,VALID,347,VALID,1.61172,
2011-02-12, 00:16:05,VALID,1003.59,VALID,0,VALID,104,VALID,0,VALID,25.6486,VALID,15,VALID,2.49609,
2011-02-12, 00:17:05,VALID,1003.52,VALID,0,VALID,101.632,VALID,0.100563,VALID,25.6272,VALID,11,VALID,1.94961,
2011-02-12, 00:18:05,VALID,1003.53,VALID,0,VALID,100.503,VALID,0,VALID,25.5707,VALID,351,VALID,1.82031,
2011-02-12, 00:19:05,VALID,1003.53,VALID,0,VALID,100.182,VALID,0,VALID,25.5513,VALID,33,VALID,1.66641,
2011-02-12, 00:20:05,VALID,1003.56,VALID,0,VALID,98.6109,VALID,0,VALID,25.5337,VALID,34,VALID,1.76914,
2011-02-12, 00:21:05,VALID,1003.51,VALID,0,VALID,98.6643,VALID,0,VALID,25.4734,VALID,34,VALID,1.62734,
2011-02-12, 00:22:05,VALID,1003.52,VALID,0,VALID,99.2212,VALID,0,VALID,25.4539,VALID,358,VALID,1.09141,
2011-02-12, 00:23:05,VALID,1003.46,VALID,0,VALID,96.1544,VALID,0,VALID,25.3955,VALID,21,VALID,1.45859,
2011-02-12, 00:24:05,VALID,1003.45,VALID,0,VALID,96.2231,VALID,0.100563,VALID,25.4149,VALID,360,VALID,1.21406,
2011-02-12, 00:25:05,VALID,1003.39,VALID,0,VALID,95.6814,VALID,0,VALID,25.4169,VALID,44,VALID,0.888672,
2011-02-12, 00:26:05,VALID,1003.36,VALID,0,VALID,96.3146,VALID,0,VALID,25.3779,VALID,17,VALID,1.81602,
2011-02-12, 00:27:05,VALID,1003.39,VALID,0,VALID,93.8581,VALID,0,VALID,25.337,VALID,30,VALID,1.12852,
2011-02-12, 00:28:05,VALID,1003.36,VALID,0,VALID,91.5695,VALID,0,VALID,25.3176,VALID,27,VALID,1.17969,
2011-02-12, 00:29:05,VALID,1003.37,VALID,0,VALID,89.6699,VALID,0,VALID,25.339,VALID,8,VALID,1.86992,
2011-02-12, 00:30:05,VALID,1003.38,VALID,0,VALID,92.0348,VALID,0,VALID,25.339,VALID,10,VALID,1.32187,
2011-02-12, 00:31:05,VALID,1003.39,VALID,0,VALID,93.0571,VALID,0,VALID,25.2786,VALID,33,VALID,0.917969,
2011-02-12, 00:32:05,VALID,1003.29,VALID,0,VALID,91.9433,VALID,0,VALID,25.2592,VALID,16,VALID,0.960547,
2011-02-12, 00:33:05,VALID,1003.31,VALID,0,VALID,91.0354,VALID,0,VALID,25.2592,VALID,42,VALID,0.969922,
2011-02-12, 00:34:05,VALID,1003.29,VALID,0,VALID,90.3565,VALID,0,VALID,25.2592,VALID,25,VALID,1.31523,
2011-02-12, 00:35:05,VALID,1003.27,VALID,0,VALID,91.0507,VALID,0,VALID,25.2397,VALID,15,VALID,1.54453,
2011-02-12, 00:36:05,VALID,1003.26,VALID,0,VALID,92.1721,VALID,0,VALID,25.2007,VALID,41,VALID,0.729688,
2011-02-12, 00:37:05,VALID,1003.26,VALID,0,VALID,93.1486,VALID,0,VALID,25.1229,VALID,35,VALID,0.564453,
2011-02-12, 00:38:05,VALID,1003.25,VALID,0,VALID,93.9573,VALID,0.100563,VALID,25.0839,VALID,17,VALID,1.24805,
2011-02-12, 00:39:05,VALID,1003.22,VALID,0,VALID,95.2237,VALID,0.100563,VALID,25.0663,VALID,39,VALID,1.02656,
2011-02-12, 00:40:05,VALID,1003.23,VALID,0,VALID,95.8111,VALID,0,VALID,24.9866,VALID,24,VALID,1.04258,
2011-02-12, 00:41:05,VALID,1003.21,VALID,0,VALID,96.7571,VALID,0,VALID,24.969,VALID,14,VALID,1.37383,
2011-02-12, 00:42:05,VALID,1003.17,VALID,0,VALID,97.6954,VALID,0,VALID,24.9282,VALID,55,VALID,1.17188,
2011-02-12, 00:43:05,VALID,1003.16,VALID,0,VALID,96.04,VALID,0,VALID,24.9866,VALID,19,VALID,1.56523,
2011-02-12, 00:44:05,VALID,1003.13,VALID,0,VALID,97.1156,VALID,0,VALID,25.0644,VALID,352,VALID,2.14141,
2011-02-12, 00:45:05,VALID,1003.12,VALID,0,VALID,96.1544,VALID,0,VALID,25.1637,VALID,25,VALID,1.52773,
2011-02-12, 00:46:05,VALID,1003.11,VALID,0,VALID,95.3076,VALID,0,VALID,25.1423,VALID,28,VALID,1.74844,
2011-02-12, 00:47:05,VALID,1003.11,VALID,0,VALID,94.8728,VALID,0,VALID,25.1832,VALID,30,VALID,2.07656,
2011-02-12, 00:48:05,VALID,1003.07,VALID,0,VALID,94.5981,VALID,0,VALID,25.2027,VALID,49,VALID,1.29102,
2011-02-12, 00:49:05,VALID,1003.02,VALID,0,VALID,94.2014,VALID,0,VALID,25.1618,VALID,86,VALID,0.635156,
2011-02-12, 00:50:05,VALID,1003.03,VALID,0,VALID,93.8505,VALID,0,VALID,25.1442,VALID,37,VALID,1.04844,
2011-02-12, 00:51:05,VALID,1003.03,VALID,0,VALID,94.8956,VALID,0,VALID,25.1229,VALID,29,VALID,0.766797,
2011-02-12, 00:52:05,VALID,1003.01,VALID,0,VALID,95.6662,VALID,0,VALID,25.1442,VALID,61,VALID,0.685156,
2011-02-12, 00:53:05,VALID,1002.98,VALID,0,VALID,96.3299,VALID,0,VALID,25.0839,VALID,21,VALID,0.974609,
2011-02-12, 00:54:05,VALID,1003,VALID,0,VALID,97.7717,VALID,0,VALID,25.0255,VALID,29,VALID,1.32109,
2011-02-12, 00:55:05,VALID,1003,VALID,0,VALID,98.2066,VALID,0,VALID,25.0098,VALID,14,VALID,1.55469,
2011-02-12, 00:56:05,VALID,1002.93,VALID,0,VALID,99.6866,VALID,0,VALID,24.9671,VALID,38,VALID,0.879687,
2011-02-12, 00:57:05,VALID,1002.95,VALID,0,VALID,100.907,VALID,0,VALID,24.9495,VALID,25,VALID,0.634375,
2011-02-12, 00:58:05,VALID,1002.89,VALID,0,VALID,104,VALID,0,VALID,24.9106,VALID,47,VALID,0.580859,
2011-02-12, 00:59:05,VALID,1002.85,VALID,0,VALID,104,VALID,0,VALID,24.8892,VALID,70,VALID,0.53125,
2011-02-12, 01:00:05,VALID,1002.83,VALID,0,INVALID,109.734,VALID,0,VALID,24.9106,VALID,35,VALID,1.0707,
2011-02-12, 01:01:05,VALID,1002.83,VALID,0,INVALID,111.618,VALID,0,VALID,24.9282,VALID,47,VALID,0.602734,
2011-02-12, 01:02:05,VALID,1002.79,VALID,0,INVALID,111.199,VALID,0,VALID,24.9476,VALID,91,VALID,1.08828,
2011-02-12, 01:03:05,VALID,1002.82,VALID,0,INVALID,112.953,VALID,0,VALID,24.969,VALID,21,VALID,0.986719,
2011-02-12, 01:04:05,VALID,1002.79,VALID,0,INVALID,113.029,VALID,0,VALID,24.969,VALID,20,VALID,1.04062,
2011-02-12, 01:05:05,VALID,1002.81,VALID,0,INVALID,116.234,VALID,0,VALID,24.9282,VALID,26,VALID,0.495313,
2011-02-12, 01:06:05,VALID,1002.8,VALID,0,INVALID,119.72,VALID,0,VALID,24.8911,VALID,26,VALID,0.637109,
2011-02-12, 01:07:05,VALID,1002.82,VALID,0,INVALID,124.282,VALID,0,VALID,24.8716,VALID,11,VALID,0.891797,
2011-02-12, 01:08:05,VALID,1002.81,VALID,0,INVALID,128.638,VALID,0,VALID,24.8327,VALID,347,VALID,0.369141,
2011-02-12, 01:09:05,VALID,1002.82,VALID,0,INVALID,136.359,VALID,0,VALID,24.7919,VALID,320,VALID,0.210156,
2011-02-12, 01:10:05,VALID,1002.82,VALID,0,INVALID,150.152,VALID,0,VALID,24.7937,VALID,291,VALID,0.308594,
2011-02-12, 01:11:05,VALID,1002.81,VALID,0,INVALID,163.578,VALID,0,VALID,24.7743,VALID,291,VALID,0.133203,
2011-02-12, 01:12:05,VALID,1002.81,VALID,0,INVALID,163.586,VALID,0,VALID,24.7335,VALID,291,VALID,0.225,
2011-02-12, 01:13:05,VALID,1002.79,VALID,0,INVALID,163.624,VALID,0,VALID,24.714,VALID,291,VALID,0.321484,
2011-02-12, 01:14:05,VALID,1002.78,VALID,0,INVALID,163.655,VALID,0,VALID,24.6945,VALID,291,VALID,0.325781,
2011-02-12, 01:15:05,VALID,1002.75,VALID,0,INVALID,163.639,VALID,0,VALID,24.675,VALID,295,VALID,0.499219,
2011-02-12, 01:16:05,VALID,1002.75,VALID,0,INVALID,163.632,VALID,0,VALID,24.675,VALID,308,VALID,0.227344,
2011-02-12, 01:17:05,VALID,1002.73,VALID,0,INVALID,163.632,VALID,0,VALID,24.6574,VALID,349,VALID,0.625,
2011-02-12, 01:18:05,VALID,1002.74,VALID,0,INVALID,163.647,VALID,0,VALID,24.5777,VALID,349,VALID,0.407422,
2011-02-12, 01:19:05,VALID,1002.7,VALID,0,INVALID,163.678,VALID,0,VALID,24.5388,VALID,349,VALID,0.381641,
2011-02-12, 01:20:05,VALID,1002.67,VALID,0,INVALID,163.655,VALID,0,VALID,24.5212,VALID,350,VALID,0.520703,
2011-02-12, 01:21:05,VALID,1002.67,VALID,0,INVALID,163.647,VALID,0,VALID,24.4628,VALID,350,VALID,0.594531,
2011-02-12, 01:22:05,VALID,1002.66,VALID,0,INVALID,163.647,VALID,0,VALID,24.383,VALID,350,VALID,0.461328,
2011-02-12, 01:23:05,VALID,1002.68,VALID,0,INVALID,163.685,VALID,0,VALID,24.3265,VALID,350,VALID,0.447656,
2011-02-12, 01:24:05,VALID,1002.67,VALID,0,INVALID,163.716,VALID,0,VALID,24.2468,VALID,350,VALID,0.282031,
2011-02-12, 01:25:05,VALID,1002.69,VALID,0,INVALID,163.67,VALID,0,VALID,24.2291,VALID,350,VALID,0.492969,
2011-02-12, 01:26:05,VALID,1002.69,VALID,0,INVALID,163.685,VALID,0,VALID,24.1902,VALID,350,VALID,0.0984375,
2011-02-12, 01:27:05,VALID,1002.66,VALID,0,INVALID,163.708,VALID,0,VALID,24.1281,VALID,350,VALID,0.117578,
2011-02-12, 01:28:05,VALID,1002.67,VALID,0,INVALID,163.701,VALID,0,VALID,24.1318,VALID,350,VALID,0.382422,
2011-02-12, 01:29:05,VALID,1002.66,VALID,0,INVALID,163.678,VALID,0,VALID,24.1105,VALID,347,VALID,0.335938,
2011-02-12, 01:30:05,VALID,1002.65,VALID,0,INVALID,163.678,VALID,0,VALID,24.13,VALID,347,VALID,0.175391,
2011-02-12, 01:31:05,VALID,1002.67,VALID,0,INVALID,163.685,VALID,0,VALID,24.1105,VALID,347,VALID,0.354297,
2011-02-12, 01:32:05,VALID,1002.64,VALID,0,INVALID,163.701,VALID,0,VALID,24.0716,VALID,347,VALID,0.265625,
2011-02-12, 01:33:05,VALID,1002.64,VALID,0,INVALID,163.67,VALID,0,VALID,24.0132,VALID,347,VALID,0.415234,
2011-02-12, 01:34:05,VALID,1002.69,VALID,0,INVALID,163.723,VALID,0,VALID,24.015,VALID,347,VALID,0.559375,
2011-02-12, 01:35:05,VALID,1002.66,VALID,0,INVALID,163.723,VALID,0,VALID,23.9353,VALID,349,VALID,0.369922,
2011-02-12, 01:36:05,VALID,1002.66,VALID,0,INVALID,163.723,VALID,0,VALID,23.8769,VALID,349,VALID,0.369531,
2011-02-12, 01:37:05,VALID,1002.64,VALID,0,INVALID,163.723,VALID,0,VALID,23.838,VALID,349,VALID,0.151562,
2011-02-12, 01:38:05,VALID,1002.66,VALID,0,INVALID,163.746,VALID,0,VALID,23.8185,VALID,349,VALID,0.298828,
2011-02-12, 01:39:05,VALID,1002.63,VALID,0,INVALID,163.716,VALID,0,VALID,23.8185,VALID,349,VALID,0.19375,
2011-02-12, 01:40:05,VALID,1002.61,VALID,0,INVALID,163.723,VALID,0,VALID,23.7778,VALID,349,VALID,0.158984,
2011-02-12, 01:41:05,VALID,1002.59,VALID,0,INVALID,163.701,VALID,0,VALID,23.7991,VALID,349,VALID,0.114453,
2011-02-12, 01:42:05,VALID,1002.6,VALID,0,INVALID,163.731,VALID,0,VALID,23.8185,VALID,349,VALID,0.135156,
2011-02-12, 01:43:05,VALID,1002.58,VALID,0,INVALID,163.678,VALID,0,VALID,23.7991,VALID,349,VALID,0.199609,
2011-02-12, 01:44:05,VALID,1002.62,VALID,0,INVALID,163.701,VALID,0,VALID,23.8398,VALID,349,VALID,0,
2011-02-12, 01:45:05,VALID,1002.62,VALID,0,INVALID,163.723,VALID,0,VALID,23.8185,VALID,349,VALID,0.00195313,
2011-02-12, 01:46:05,VALID,1002.67,VALID,0,INVALID,163.693,VALID,0,VALID,23.8185,VALID,349,VALID,0.110156,
2011-02-12, 01:47:05,VALID,1002.7,VALID,0,INVALID,163.716,VALID,0,VALID,23.8398,VALID,349,VALID,0,
2011-02-12, 01:48:05,VALID,1002.71,VALID,0,INVALID,163.708,VALID,0,VALID,23.8185,VALID,349,VALID,0,
2011-02-12, 01:49:05,VALID,1002.72,VALID,0,INVALID,163.708,VALID,0,VALID,23.8185,VALID,349,VALID,0,
2011-02-12, 01:50:05,VALID,1002.76,VALID,0,INVALID,163.723,VALID,0,VALID,23.7973,VALID,349,VALID,0,
2011-02-12, 01:51:05,VALID,1002.78,VALID,0,INVALID,163.716,VALID,0,VALID,23.7991,VALID,349,VALID,0,
2011-02-12, 01:52:05,VALID,1002.8,VALID,0,INVALID,163.701,VALID,0.100563,VALID,23.7796,VALID,349,VALID,0,
2011-02-12, 01:53:05,VALID,1002.79,VALID,0,INVALID,163.693,VALID,0,VALID,23.8203,VALID,349,VALID,0.307813,
2011-02-12, 01:54:05,VALID,1002.8,VALID,0,INVALID,163.701,VALID,0,VALID,23.7601,VALID,349,VALID,0.317187,
2011-02-12, 01:55:05,VALID,1002.78,VALID,0,INVALID,163.701,VALID,0,VALID,23.7601,VALID,349,VALID,0.290625,
2011-02-12, 01:56:05,VALID,1002.76,VALID,0,INVALID,163.716,VALID,0,VALID,23.7212,VALID,1,VALID,0.495313,
2011-02-12, 01:57:05,VALID,1002.76,VALID,0,INVALID,163.739,VALID,0,VALID,23.7035,VALID,85,VALID,0.665234,
2011-02-12, 01:58:05,VALID,1002.73,VALID,0,INVALID,163.723,VALID,0,VALID,23.6841,VALID,93,VALID,0.301953,
2011-02-12, 01:59:05,VALID,1002.76,VALID,0,INVALID,163.708,VALID,0,VALID,23.6841,VALID,93,VALID,0.553125,
2011-02-12, 02:00:05,VALID,1002.75,VALID,0,INVALID,163.716,VALID,0,VALID,23.6859,VALID,93,VALID,0.294922,
2011-02-12, 02:01:05,VALID,1002.77,VALID,0,INVALID,163.716,VALID,0,VALID,23.6859,VALID,93,VALID,0.369141,
2011-02-12, 02:02:05,VALID,1002.73,VALID,0,INVALID,163.731,VALID,0,VALID,23.6452,VALID,93,VALID,0.288672,
2011-02-12, 02:03:05,VALID,1002.73,VALID,0,INVALID,163.708,VALID,0,VALID,23.6452,VALID,93,VALID,0.0644531,
2011-02-12, 02:04:05,VALID,1002.68,VALID,0,INVALID,163.708,VALID,0,VALID,23.6452,VALID,93,VALID,0.0015625,
2011-02-12, 02:05:05,VALID,1002.67,VALID,0,INVALID,163.716,VALID,0,VALID,23.6452,VALID,93,VALID,0.090625,
2011-02-12, 02:06:05,VALID,1002.63,VALID,0,INVALID,163.716,VALID,0,VALID,23.6452,VALID,93,VALID,0.282813,
2011-02-12, 02:07:05,VALID,1002.61,VALID,0,INVALID,163.754,VALID,0,VALID,23.6452,VALID,93,VALID,0.280859,
2011-02-12, 02:08:05,VALID,1002.61,VALID,0,INVALID,163.731,VALID,0,VALID,23.6469,VALID,93,VALID,0,
2011-02-12, 02:09:05,VALID,1002.6,VALID,0,INVALID,163.739,VALID,0,VALID,23.6275,VALID,93,VALID,0.231641,
2011-02-12, 02:10:05,VALID,1002.58,VALID,0,INVALID,163.708,VALID,0,VALID,23.6062,VALID,93,VALID,0.194531,
2011-02-12, 02:11:05,VALID,1002.57,VALID,0,INVALID,163.731,VALID,0,VALID,23.6026,VALID,93,VALID,0.287891,
2011-02-12, 02:12:05,VALID,1002.54,VALID,0,INVALID,163.723,VALID,0,VALID,23.6221,VALID,93,VALID,0.138672,
2011-02-12, 02:13:05,VALID,1002.51,VALID,0,INVALID,163.708,VALID,0,VALID,23.6434,VALID,93,VALID,0.28125,
2011-02-12, 02:14:05,VALID,1002.45,VALID,0,INVALID,163.716,VALID,0,VALID,23.6434,VALID,93,VALID,0.301562,
2011-02-12, 02:15:05,VALID,1002.42,VALID,0,INVALID,163.739,VALID,0,VALID,23.6239,VALID,93,VALID,0.355859,
2011-02-12, 02:16:05,VALID,1002.4,VALID,0,INVALID,163.731,VALID,0,VALID,23.6044,VALID,34,VALID,0.675781,
2011-02-12, 02:17:05,VALID,1002.36,VALID,0,INVALID,163.716,VALID,0,VALID,23.6044,VALID,359,VALID,0.560547,
2011-02-12, 02:18:05,VALID,1002.34,VALID,0,INVALID,163.723,VALID,0.100563,VALID,23.585,VALID,4,VALID,0.837109,
2011-02-12, 02:19:05,VALID,1002.33,VALID,0,INVALID,163.708,VALID,0,VALID,23.5266,VALID,2,VALID,0.411328,
2011-02-12, 02:20:05,VALID,1002.3,VALID,0,INVALID,163.731,VALID,0,VALID,23.4859,VALID,2,VALID,0.60625,
2011-02-12, 02:21:05,VALID,1002.28,VALID,0,INVALID,163.746,VALID,0,VALID,23.4877,VALID,357,VALID,0.594922,
2011-02-12, 02:22:05,VALID,1002.28,VALID,0,INVALID,163.754,VALID,0,VALID,23.4682,VALID,342,VALID,0.619922,
2011-02-12, 02:23:05,VALID,1002.27,VALID,0,INVALID,163.739,VALID,0,VALID,23.5089,VALID,345,VALID,0.721875,
2011-02-12, 02:24:05,VALID,1002.26,VALID,0,INVALID,163.746,VALID,0.100563,VALID,23.4682,VALID,6,VALID,0.528906,
2011-02-12, 02:25:05,VALID,1002.23,VALID,0,INVALID,163.746,VALID,0,VALID,23.4877,VALID,358,VALID,0.580469,
2011-02-12, 02:26:05,VALID,1002.21,VALID,0,INVALID,163.739,VALID,0,VALID,23.4877,VALID,358,VALID,0.648438,
2011-02-12, 02:27:05,VALID,1002.22,VALID,0,INVALID,163.731,VALID,0,VALID,23.447,VALID,358,VALID,0.344141,
2011-02-12, 02:28:05,VALID,1002.2,VALID,0,INVALID,163.739,VALID,0.100563,VALID,23.4877,VALID,354,VALID,0.503125,
2011-02-12, 02:29:05,VALID,1002.19,VALID,0,INVALID,163.708,VALID,0,VALID,23.5071,VALID,354,VALID,0.0632813,
2011-02-12, 02:30:05,VALID,1002.22,VALID,0,INVALID,163.746,VALID,0,VALID,23.5071,VALID,354,VALID,0,
2011-02-12, 02:31:05,VALID,1002.2,VALID,0,INVALID,163.716,VALID,0,VALID,23.5053,VALID,354,VALID,0,
2011-02-12, 02:32:05,VALID,1002.21,VALID,0,INVALID,163.739,VALID,0,VALID,23.5248,VALID,354,VALID,0,
2011-02-12, 02:33:05,VALID,1002.19,VALID,0,INVALID,163.762,VALID,0,VALID,23.5655,VALID,354,VALID,0,
2011-02-12, 02:34:05,VALID,1002.22,VALID,0,INVALID,163.746,VALID,0,VALID,23.546,VALID,354,VALID,0,
2011-02-12, 02:35:05,VALID,1002.21,VALID,0,INVALID,163.754,VALID,0,VALID,23.5248,VALID,354,VALID,0,
2011-02-12, 02:36:05,VALID,1002.19,VALID,0,INVALID,163.708,VALID,0,VALID,23.5655,VALID,354,VALID,0,
2011-02-12, 02:37:05,VALID,1002.18,VALID,0,INVALID,163.708,VALID,0.100563,VALID,23.585,VALID,354,VALID,0,
2011-02-12, 02:38:05,VALID,1002.17,VALID,0,INVALID,163.739,VALID,0,VALID,23.5655,VALID,354,VALID,0,
2011-02-12, 02:39:05,VALID,1002.16,VALID,0,INVALID,163.746,VALID,0,VALID,23.5655,VALID,354,VALID,0,
2011-02-12, 02:40:05,VALID,1002.16,VALID,0,INVALID,163.746,VALID,0,VALID,23.5443,VALID,354,VALID,0,
2011-02-12, 02:41:05,VALID,1002.17,VALID,0,INVALID,163.739,VALID,0,VALID,23.5655,VALID,354,VALID,0,
2011-02-12, 02:42:05,VALID,1002.2,VALID,0,INVALID,163.723,VALID,0,VALID,23.6044,VALID,354,VALID,0,
2011-02-12, 02:43:05,VALID,1002.22,VALID,0,INVALID,163.708,VALID,0,VALID,23.6044,VALID,354,VALID,0,
2011-02-12, 02:44:05,VALID,1002.23,VALID,0,INVALID,163.716,VALID,0,VALID,23.585,VALID,354,VALID,0,
2011-02-12, 02:45:05,VALID,1002.22,VALID,0,INVALID,163.754,VALID,0.100563,VALID,23.6257,VALID,354,VALID,0,
2011-02-12, 02:46:05,VALID,1002.21,VALID,0,INVALID,163.708,VALID,0.100563,VALID,23.6044,VALID,354,VALID,0,
2011-02-12, 02:47:05,VALID,1002.22,VALID,0,INVALID,163.723,VALID,0,VALID,23.585,VALID,354,VALID,0,
2011-02-12, 02:48:05,VALID,1002.2,VALID,0,INVALID,163.746,VALID,0,VALID,23.5443,VALID,354,VALID,0,
2011-02-12, 02:49:05,VALID,1002.25,VALID,0,INVALID,163.739,VALID,0,VALID,23.5443,VALID,354,VALID,0,
2011-02-12, 02:50:05,VALID,1002.23,VALID,0,INVALID,163.739,VALID,0.100563,VALID,23.5655,VALID,354,VALID,0,
2011-02-12, 02:51:05,VALID,1002.23,VALID,0,INVALID,163.754,VALID,0,VALID,23.5655,VALID,354,VALID,0,
2011-02-12, 02:52:05,VALID,1002.23,VALID,0,INVALID,163.731,VALID,0.100563,VALID,23.5443,VALID,354,VALID,0,
2011-02-12, 02:53:04,VALID,1002.21,VALID,0,INVALID,163.746,VALID,0.100563,VALID,23.5443,VALID,354,VALID,0,
2011-02-12, 02:54:04,VALID,1002.21,VALID,0,INVALID,163.731,VALID,0,VALID,23.5443,VALID,354,VALID,0,
2011-02-12, 02:55:04,VALID,1002.19,VALID,0,INVALID,163.739,VALID,0,VALID,23.5053,VALID,354,VALID,0,
2011-02-12, 02:56:04,VALID,1002.17,VALID,0,INVALID,163.731,VALID,0.100563,VALID,23.5443,VALID,354,VALID,0,
2011-02-12, 02:57:04,VALID,1002.14,VALID,0,INVALID,163.731,VALID,0,VALID,23.5053,VALID,354,VALID,0,
2011-02-12, 02:58:04,VALID,1002.17,VALID,0,INVALID,163.731,VALID,0,VALID,23.4859,VALID,354,VALID,0,
2011-02-12, 02:59:04,VALID,1002.16,VALID,0,INVALID,163.731,VALID,0,VALID,23.5266,VALID,354,VALID,0,
2011-02-12, 03:00:04,VALID,1002.15,VALID,0,INVALID,163.716,VALID,0,VALID,23.5071,VALID,354,VALID,0.122266,
2011-02-12, 03:01:04,VALID,1002.15,VALID,0,INVALID,163.739,VALID,0,VALID,23.5071,VALID,354,VALID,0.00195313,
2011-02-12, 03:02:04,VALID,1002.15,VALID,0,INVALID,163.746,VALID,0,VALID,23.4859,VALID,354,VALID,0.173438,
2011-02-12, 03:03:04,VALID,1002.14,VALID,0,INVALID,163.754,VALID,0,VALID,23.4859,VALID,354,VALID,0.252344,
2011-02-12, 03:04:04,VALID,1002.15,VALID,0,INVALID,163.746,VALID,0,VALID,23.5071,VALID,354,VALID,0.00195313,
2011-02-12, 03:05:04,VALID,1002.14,VALID,0,INVALID,163.762,VALID,0.100563,VALID,23.4859,VALID,354,VALID,0.271875,
2011-02-12, 03:06:04,VALID,1002.15,VALID,0,INVALID,163.739,VALID,0,VALID,23.4859,VALID,354,VALID,0.265234,
2011-02-12, 03:07:04,VALID,1002.12,VALID,0,INVALID,163.754,VALID,0,VALID,23.5071,VALID,354,VALID,0.479297,
2011-02-12, 03:08:04,VALID,1002.12,VALID,0,INVALID,163.754,VALID,0,VALID,23.5071,VALID,354,VALID,0.511719,
2011-02-12, 03:09:04,VALID,1002.08,VALID,0,INVALID,163.731,VALID,0,VALID,23.5071,VALID,354,VALID,0.397266,
2011-02-12, 03:10:04,VALID,1002.07,VALID,0,INVALID,163.739,VALID,0,VALID,23.5284,VALID,354,VALID,0.357422,
2011-02-12, 03:11:04,VALID,1002.04,VALID,0,INVALID,163.731,VALID,0.100563,VALID,23.4859,VALID,354,VALID,0.189453,
2011-02-12, 03:12:04,VALID,1002.02,VALID,0,INVALID,163.716,VALID,0,VALID,23.5071,VALID,354,VALID,0.222656,
2011-02-12, 03:13:04,VALID,1002.03,VALID,0,INVALID,163.754,VALID,0,VALID,23.5071,VALID,354,VALID,0.452344,
2011-02-12, 03:14:04,VALID,1002.07,VALID,0,INVALID,163.746,VALID,0,VALID,23.4682,VALID,354,VALID,0.408984,
2011-02-12, 03:15:04,VALID,1002.03,VALID,0,INVALID,163.746,VALID,0.100563,VALID,23.4275,VALID,354,VALID,0.627344,
2011-02-12, 03:16:04,VALID,1002.06,VALID,0,INVALID,163.762,VALID,0,VALID,23.4098,VALID,354,VALID,0.692578,
2011-02-12, 03:17:04,VALID,1002.04,VALID,0,INVALID,163.754,VALID,0,VALID,23.3709,VALID,354,VALID,0.512109,
2011-02-12, 03:18:04,VALID,1002.05,VALID,0,INVALID,163.777,VALID,0.100563,VALID,23.3497,VALID,354,VALID,0.372266,
2011-02-12, 03:19:04,VALID,1002.03,VALID,0,INVALID,163.754,VALID,0,VALID,23.3709,VALID,354,VALID,0.430078,
2011-02-12, 03:20:04,VALID,1002.02,VALID,0,INVALID,163.754,VALID,0,VALID,23.3709,VALID,354,VALID,0.373437,
2011-02-12, 03:21:04,VALID,1002.02,VALID,0,INVALID,163.769,VALID,0.100563,VALID,23.3904,VALID,354,VALID,0.195703,
2011-02-12, 03:22:04,VALID,1002.04,VALID,0,INVALID,163.746,VALID,0.100563,VALID,23.3886,VALID,354,VALID,0.278125,
2011-02-12, 03:23:04,VALID,1002.07,VALID,0,INVALID,163.754,VALID,0,VALID,23.3691,VALID,354,VALID,0.0679687,
2011-02-12, 03:24:04,VALID,1002.06,VALID,0,INVALID,163.723,VALID,0,VALID,23.3904,VALID,354,VALID,0,
2011-02-12, 03:25:04,VALID,1002.09,VALID,0,INVALID,163.731,VALID,0,VALID,23.3497,VALID,354,VALID,0,
2011-02-12, 03:26:04,VALID,1002.13,VALID,0,INVALID,163.754,VALID,0,VALID,23.3904,VALID,354,VALID,0,
2011-02-12, 03:27:04,VALID,1002.16,VALID,0,INVALID,163.723,VALID,0,VALID,23.3904,VALID,354,VALID,0,
2011-02-12, 03:28:04,VALID,1002.17,VALID,0,INVALID,163.754,VALID,0,VALID,23.3904,VALID,354,VALID,0,
2011-02-12, 03:29:04,VALID,1002.18,VALID,0,INVALID,163.762,VALID,0,VALID,23.4116,VALID,354,VALID,0.222266,
2011-02-12, 03:30:04,VALID,1002.16,VALID,0,INVALID,163.762,VALID,0,VALID,23.4098,VALID,354,VALID,0.196875,
2011-02-12, 03:31:04,VALID,1002.18,VALID,0,INVALID,163.739,VALID,0.100563,VALID,23.3886,VALID,354,VALID,0.01875,
2011-02-12, 03:32:04,VALID,1002.17,VALID,0,INVALID,163.731,VALID,0,VALID,23.3691,VALID,354,VALID,0.151562,
2011-02-12, 03:33:04,VALID,1002.2,VALID,0,INVALID,163.762,VALID,0,VALID,23.3709,VALID,354,VALID,0.251172,
2011-02-12, 03:34:04,VALID,1002.18,VALID,0,INVALID,163.739,VALID,0,VALID,23.3709,VALID,354,VALID,0.0503906,
2011-02-12, 03:35:04,VALID,1002.18,VALID,0,INVALID,163.777,VALID,0.100563,VALID,23.3886,VALID,354,VALID,0,
2011-02-12, 03:36:04,VALID,1002.23,VALID,0,INVALID,163.739,VALID,0.100563,VALID,23.408,VALID,354,VALID,0.355469,
2011-02-12, 03:37:04,VALID,1002.19,VALID,0,INVALID,163.754,VALID,0,VALID,23.408,VALID,354,VALID,0.174609,
2011-02-12, 03:38:04,VALID,1002.24,VALID,0,INVALID,163.769,VALID,0,VALID,23.4487,VALID,354,VALID,0.237891,
2011-02-12, 03:39:04,VALID,1002.27,VALID,0,INVALID,163.746,VALID,0,VALID,23.4098,VALID,354,VALID,0,
2011-02-12, 03:40:04,VALID,1002.3,VALID,0,INVALID,163.762,VALID,0,VALID,23.4098,VALID,354,VALID,0,
2011-02-12, 03:41:04,VALID,1002.3,VALID,0,INVALID,163.739,VALID,0,VALID,23.4098,VALID,354,VALID,0,
2011-02-12, 03:42:04,VALID,1002.31,VALID,0,INVALID,163.746,VALID,0,VALID,23.4311,VALID,354,VALID,0,
2011-02-12, 03:43:04,VALID,1002.35,VALID,0,INVALID,163.723,VALID,0,VALID,23.4116,VALID,354,VALID,0,